Le nostre stazioni meteo in Italia

Pubblicità
Il mio iltempo24.it
Catania/Fontanarossa, Italia (16460): Temperatura & dewpoint: 15.09.2018 05:00:00 - 21.09.2018 05:00:00 (CEST)Catania/Fontanarossa, Italia (16460): velocità del vento: 15.09.2018 05:00:00 - 21.09.2018 05:00:00 (CEST)Catania/Fontanarossa, Italia (16460): direzione del vento: 15.09.2018 05:00:00 - 21.09.2018 05:00:00 (CEST)Catania/Fontanarossa, Italia (16460): reduced air pressure: 15.09.2018 05:00:00 - 21.09.2018 05:00:00 (CEST)Catania/Fontanarossa, Italia (16460): visibility: 15.09.2018 05:00:00 - 21.09.2018 05:00:00 (CEST)Catania/Fontanarossa, Italia (16460): precipitazioni: 15.09.2018 05:00:00 - 21.09.2018 05:00:00 (CEST)
Data & Tempo tt [°C] td [°C] ff [km/h] ff [kn] dd ppp [hPa] vv [km] rr [mm]
21.09.2018 05:00:00 19,0 18,0 5 3 O - 10 -
21.09.2018 04:00:00 19,0 18,0 9 5 OSO - 10 -
21.09.2018 03:00:00 20,0 19,0 11 6 OSO - 10 -
21.09.2018 02:00:00 20,0 19,0 5 3 OSO - 10 -
21.09.2018 01:00:00 20,0 19,0 8 4 OSO - 10 -
21.09.2018 00:00:00 21,0 20,0 8 4 O - 10 -
20.09.2018 23:00:00 21,5 19,7 8 4 O 1016,4 10 0,0
20.09.2018 22:00:00 23,0 21,0 9 5 ONO - 10 -
20.09.2018 21:00:00 23,0 21,0 4 2 - - 10 -
20.09.2018 20:00:00 24,3 19,5 4 2 - 1015,9 10 -
20.09.2018 19:00:00 24,0 21,0 2 1 - - 10 -
20.09.2018 18:00:00 25,0 21,0 4 2 - - 10 -
20.09.2018 17:00:00 24,0 21,0 8 4 O - 8 -
20.09.2018 16:00:00 23,0 20,0 9 5 SO - 8 -
20.09.2018 15:00:00 27,0 19,0 9 5 S - 10 -
20.09.2018 14:00:00 27,2 19,7 9 5 E 1016,6 10 -
20.09.2018 13:00:00 28,0 22,0 15 8 ESE - 10 -
20.09.2018 12:00:00 28,0 19,0 11 6 ESE - 10 -
20.09.2018 11:00:00 27,9 18,8 8 4 ESE 1017,4 10 0,0
20.09.2018 10:00:00 25,0 19,0 5 3 SSO - 10 -
20.09.2018 09:00:00 24,0 20,0 4 2 - - 10 -
20.09.2018 08:00:00 19,8 18,4 9 5 OSO 1017,1 10 -
20.09.2018 07:00:00 19,0 18,0 9 5 O - 10 -
20.09.2018 06:00:00 19,0 18,0 13 7 OSO - 10 -
20.09.2018 05:00:00 18,7 17,7 11 6 O 1016,8 10 0,0
20.09.2018 04:00:00 19,0 18,0 11 6 OSO - 10 -
20.09.2018 03:00:00 20,0 18,0 11 6 OSO - 10 -
20.09.2018 02:00:00 20,0 18,2 13 7 O 1017,8 10 -
20.09.2018 01:00:00 20,0 19,0 13 7 O - 10 -
20.09.2018 00:00:00 20,0 19,0 9 5 O - 10 -
19.09.2018 23:00:00 20,2 18,7 11 6 OSO 1018,2 10 0,0
19.09.2018 22:00:00 21,0 19,0 13 7 O - 10 -
19.09.2018 21:00:00 20,0 19,0 9 5 OSO - 10 -
19.09.2018 20:00:00 20,2 18,9 15 8 OSO 1017,4 10 -
19.09.2018 19:00:00 21,0 19,0 9 5 SO - 10 -
19.09.2018 18:00:00 20,0 18,0 16 9 OSO - 8 -
19.09.2018 17:00:00 21,0 18,0 35 19 NO 1018,3 2,5 0,0
19.09.2018 16:00:00 26,0 20,0 5 3 O - 10 -
19.09.2018 15:00:00 26,0 22,0 15 8 SE - 10 -
19.09.2018 14:00:00 26,8 22,6 16 9 SE 1017,7 10 -
19.09.2018 13:00:00 29,0 21,0 18 10 ESE - 10 -
19.09.2018 12:00:00 29,0 20,0 13 7 ESE - 10 -
19.09.2018 11:00:00 28,6 19,3 4 2 - 1019,0 10 0,0
19.09.2018 10:00:00 27,0 21,0 8 4 SO - 10 -
19.09.2018 09:00:00 24,0 19,0 9 5 SO - 10 -
19.09.2018 08:00:00 21,5 19,0 5 3 O 1018,7 10 -
19.09.2018 07:00:00 20,0 18,0 4 2 OSO - 10 -
19.09.2018 06:00:00 21,0 19,0 2 1 - - 10 -
19.09.2018 05:00:00 20,9 18,1 4 2 - 1018,3 10 0,0
19.09.2018 04:00:00 21,0 18,0 8 4 OSO - 10 -
19.09.2018 03:00:00 22,0 19,0 15 8 OSO - 10 -
19.09.2018 02:00:00 21,7 19,1 13 7 OSO 1018,9 10 -
19.09.2018 01:00:00 22,0 20,0 15 8 OSO - 10 -
19.09.2018 00:00:00 22,0 20,0 11 6 O - 10 -
18.09.2018 23:00:00 21,8 19,5 9 5 OSO 1019,6 10 0,0
18.09.2018 22:00:00 22,0 20,0 11 6 O - 10 -
18.09.2018 21:00:00 22,0 20,0 9 5 OSO - 10 -
18.09.2018 20:00:00 24,0 19,6 4 2 - 1019,0 10 -
18.09.2018 19:00:00 25,0 21,0 11 6 NNO - 8 -
18.09.2018 18:00:00 27,0 21,0 16 9 ENE - 10 -
18.09.2018 17:00:00 26,8 20,6 18 10 E 1018,3 10 0,0
18.09.2018 16:00:00 28,0 22,0 18 10 E - 10 -
18.09.2018 15:00:00 28,0 21,0 18 10 E - 10 -
18.09.2018 14:00:00 27,6 20,5 16 9 E 1019,4 10 -
18.09.2018 13:00:00 28,0 21,0 16 9 E - 10 -
18.09.2018 12:00:00 28,0 21,0 15 8 E - 10 -
18.09.2018 11:00:00 28,1 20,5 9 5 E 1020,0 10 0,0
18.09.2018 10:00:00 27,0 19,0 2 1 - - 10 -
18.09.2018 09:00:00 26,0 19,0 5 3 OSO - 10 -
18.09.2018 08:00:00 22,3 18,8 8 4 O 1019,9 10 -
18.09.2018 07:00:00 - - - - - - - -
18.09.2018 06:00:00 20,0 18,0 5 3 O - 10 -
18.09.2018 05:00:00 20,0 18,0 9 5 OSO - 10 -
18.09.2018 04:00:00 21,0 19,0 8 4 SO - 10 -
18.09.2018 03:00:00 21,0 20,0 8 4 SO - 10 -
18.09.2018 02:00:00 21,5 19,9 8 4 O 1019,3 - -
18.09.2018 01:00:00 23,0 21,0 2 1 - - 10 -
18.09.2018 00:00:00 23,0 21,0 8 4 O - 10 -
17.09.2018 23:00:00 23,9 21,5 2 1 - 1020,1 10 0,0
17.09.2018 22:00:00 25,0 22,0 5 3 ESE - 10 -
17.09.2018 21:00:00 26,0 22,0 8 4 E - 10 -
17.09.2018 20:00:00 25,5 21,3 9 5 ENE 1019,5 10 -
17.09.2018 19:00:00 26,0 21,0 9 5 E - 10 -
17.09.2018 18:00:00 27,0 21,0 9 5 ESE - 10 -
17.09.2018 17:00:00 26,8 21,6 15 8 E 1019,9 10 0,0
17.09.2018 16:00:00 28,0 22,0 16 9 E - 10 -
17.09.2018 15:00:00 28,0 22,0 21 11 ENE - 10 -
17.09.2018 14:00:00 28,5 21,7 21 11 ENE 1020,5 10 -
17.09.2018 13:00:00 29,0 20,0 16 9 E - 10 -
17.09.2018 12:00:00 28,0 20,0 15 8 E - 10 -
17.09.2018 11:00:00 27,8 20,5 8 4 E 1021,6 10 0,0
17.09.2018 10:00:00 27,0 19,0 4 2 - - 10 -
17.09.2018 09:00:00 24,0 17,0 5 3 OSO - 10 -
17.09.2018 08:00:00 21,5 18,5 5 3 OSO 1020,9 10 -
17.09.2018 07:00:00 19,0 18,0 9 5 O - 10 -
17.09.2018 06:00:00 20,0 18,0 8 4 O - 10 -
17.09.2018 05:00:00 19,9 17,7 4 2 O 1020,2 10 0,0
17.09.2018 04:00:00 21,0 18,0 8 4 SO - 10 -
17.09.2018 03:00:00 21,0 18,0 9 5 OSO - 10 -
17.09.2018 02:00:00 22,0 18,8 4 2 SO 1021,1 10 -
17.09.2018 01:00:00 25,0 20,0 4 2 NNO - 10 -
17.09.2018 00:00:00 26,0 20,0 9 5 NE - 10 -
16.09.2018 23:00:00 25,7 20,6 5 3 NNE 1021,4 10 0,0
16.09.2018 22:00:00 26,0 21,0 11 6 ENE - 10 -
16.09.2018 21:00:00 26,0 22,0 15 8 ENE - 10 -
16.09.2018 20:00:00 26,1 21,9 13 7 E 1020,8 10 -
16.09.2018 19:00:00 27,0 21,0 15 8 E - 10 -
16.09.2018 18:00:00 28,0 21,0 16 9 E - 10 -
16.09.2018 17:00:00 28,3 19,4 16 9 E 1020,4 10 0,0
16.09.2018 16:00:00 29,0 21,0 18 10 E - 10 -
16.09.2018 15:00:00 29,0 21,0 18 10 E - 10 -
16.09.2018 14:00:00 28,4 20,8 21 11 E 1021,0 10 -
16.09.2018 13:00:00 29,0 18,0 21 11 E - 10 -
16.09.2018 12:00:00 30,0 16,0 8 4 SE - 10 -
16.09.2018 11:00:00 28,8 16,1 11 6 OSO 1022,5 10 0,0
16.09.2018 10:00:00 26,0 17,0 15 8 OSO - 10 -
16.09.2018 09:00:00 23,0 17,0 11 6 SO - 10 -
16.09.2018 08:00:00 20,3 17,1 9 5 OSO 1021,4 10 -
16.09.2018 07:00:00 18,0 16,0 8 4 OSO - 10 -
16.09.2018 06:00:00 - - - - - - - -
16.09.2018 05:00:00 18,7 17,1 9 5 O 1020,2 10 0,0
16.09.2018 04:00:00 19,0 18,0 8 4 OSO - 10 -
16.09.2018 03:00:00 20,0 18,0 11 6 O - 10 -
16.09.2018 02:00:00 20,7 18,1 5 3 S 1021,0 10 -
16.09.2018 01:00:00 21,0 19,0 8 4 O - 10 -
16.09.2018 00:00:00 22,0 19,0 8 4 O - 10 -
15.09.2018 23:00:00 24,5 21,0 0 0 N 1021,0 10 0,0
15.09.2018 22:00:00 24,0 20,0 2 1 - - 10 -
15.09.2018 21:00:00 25,0 20,0 2 1 SSE - 10 -
15.09.2018 20:00:00 25,1 19,8 8 4 E 1019,9 10 -
15.09.2018 19:00:00 26,0 20,0 11 6 E - 10 -
15.09.2018 18:00:00 27,0 20,0 15 8 E - 10 -
15.09.2018 17:00:00 26,9 19,5 15 8 E 1019,1 10 0,0
15.09.2018 16:00:00 28,0 19,0 13 7 E - 10 -
15.09.2018 15:00:00 28,0 20,0 16 9 E - 10 -
15.09.2018 14:00:00 28,5 19,5 15 8 E 1019,4 10 -
15.09.2018 13:00:00 29,0 20,0 18 10 E - 10 -
15.09.2018 12:00:00 28,0 19,0 15 8 E - 10 -
15.09.2018 11:00:00 27,9 17,8 5 3 - 1019,7 10 0,0
15.09.2018 10:00:00 26,0 18,0 11 6 O - 10 -
15.09.2018 09:00:00 24,0 18,0 11 6 OSO - 10 -
15.09.2018 08:00:00 21,0 18,2 8 4 OSO 1018,6 10 -
15.09.2018 07:00:00 19,0 17,0 5 3 SO - 10 -
15.09.2018 06:00:00 19,0 18,0 8 4 SO - 10 -
15.09.2018 05:00:00 19,2 18,0 8 4 OSO 1017,1 10 0,0

tt = Temperatura
td = dewpoint
ff = velocità del vento
dd = direzione del vento
ppp = reduced air pressure
vv = visibility
rr = precipitazioni

Stazioni seguenti

WeatherPro
AMSI
MeteoEarth